When you browse on this site, cookies collect data to enhance your experience and personalize the content and advertising you see.
Visit our Privacy Policy to learn more. By continuing to use the site, you agree to this use of cookies and data.
  • In Hungary
  • List of Countries
  • For 7 days
  • Water Temperature
  • Satellite Maps
  • Weather Map
  • News
  • Weather Widgets
  • user-avatar
    Login

    Hourly Weather Multan

    Today, 24 June, Monday

    Time Temperature Precipitation Wind Pressure Humidity
    00:00 +37°C° 0.5 mm 5 mps 741 mmHg 42%
    01:00 +36°C° 0.5 mm 5 mps 741 mmHg 44%
    02:00 +35°C° 0.5 mm 5 mps 741 mmHg 47%
    03:00 +35°C° 0.3 mm 5 mps 741 mmHg 45%
    04:00 +35°C° 0.3 mm 5 mps 741 mmHg 44%
    05:00 +34°C° 0 mm 6 mps 742 mmHg 47%
    06:00 +34°C° 0.6 mm 5 mps 742 mmHg 46%
    07:00 +35°C° 0.6 mm 4 mps 742 mmHg 46%
    08:00 +35°C° 0.6 mm 3 mps 743 mmHg 46%
    09:00 +36°C° 0.3 mm 3 mps 743 mmHg 44%
    10:00 +37°C° 0.3 mm 3 mps 743 mmHg 41%
    11:00 +38°C° 0 mm 3 mps 743 mmHg 39%
    12:00 +39°C° 0 mm 3 mps 743 mmHg 36%
    13:00 +40°C° 0 mm 2 mps 743 mmHg 33%
    14:00 +41°C° 0 mm 2 mps 742 mmHg 30%
    15:00 +41°C° 0 mm 2 mps 741 mmHg 29%
    16:00 +41°C° 0 mm 2 mps 741 mmHg 28%
    17:00 +42°C° 0 mm 2 mps 740 mmHg 27%
    18:00 +41°C° 0.2 mm 2 mps 741 mmHg 29%
    19:00 +40°C° 0.2 mm 2 mps 741 mmHg 31%
    20:00 +40°C° 0.2 mm 2 mps 742 mmHg 32%
    21:00 +39°C° 0.2 mm 2 mps 742 mmHg 34%
    22:00 +38°C° 0.2 mm 2 mps 742 mmHg 35%
    23:00 +38°C° 0.2 mm 2 mps 741 mmHg 36%

    Tomorrow, 25 June, Tuesday

    Time Temperature Precipitation Wind Pressure Humidity
    00:00 +36°C° 0 mm 1 mps 741 mmHg 36%
    01:00 +36°C° 0 mm 1 mps 741 mmHg 37%
    02:00 +36°C° 0 mm 1 mps 741 mmHg 37%
    03:00 +36°C° 0 mm 1 mps 741 mmHg 38%
    04:00 +36°C° 0 mm 1 mps 741 mmHg 38%
    05:00 +36°C° 0 mm 1 mps 741 mmHg 38%
    06:00 +37°C° 0 mm 1 mps 742 mmHg 36%
    07:00 +37°C° 0 mm 1 mps 742 mmHg 33%
    08:00 +39°C° 0 mm 1 mps 743 mmHg 31%
    09:00 +40°C° 0 mm 1 mps 743 mmHg 29%
    10:00 +42°C° 0 mm 2 mps 742 mmHg 27%
    11:00 +44°C° 0 mm 3 mps 742 mmHg 26%
    12:00 +43°C° 0 mm 2 mps 742 mmHg 24%
    13:00 +45°C° 0 mm 2 mps 741 mmHg 21%
    14:00 +46°C° 0 mm 2 mps 741 mmHg 19%
    15:00 +46°C° 0 mm 2 mps 740 mmHg 19%
    16:00 +47°C° 0 mm 2 mps 740 mmHg 18%
    17:00 +46°C° 0 mm 1 mps 739 mmHg 17%
    18:00 +45°C° 0 mm 1 mps 739 mmHg 18%
    19:00 +45°C° 0 mm 1 mps 740 mmHg 19%
    20:00 +44°C° 0 mm 1 mps 740 mmHg 20%
    21:00 +44°C° 0 mm 1 mps 740 mmHg 21%
    22:00 +43°C° 0 mm 1 mps 740 mmHg 21%
    23:00 +42°C° 0 mm 2 mps 740 mmHg 22%

    Day after tomorrow, 26 June, Wednesday

    Time Temperature Precipitation Wind Pressure Humidity
    00:00 +42°C° 0 mm 2 mps 739 mmHg 23%
    01:00 +41°C° 0 mm 2 mps 739 mmHg 24%
    02:00 +41°C° 0 mm 2 mps 739 mmHg 25%
    03:00 +40°C° 0 mm 2 mps 738 mmHg 26%
    04:00 +40°C° 0 mm 3 mps 738 mmHg 27%
    05:00 +39°C° 0 mm 3 mps 738 mmHg 28%
    06:00 +42°C° 0 mm 4 mps 738 mmHg 27%
    07:00 +43°C° 0 mm 5 mps 739 mmHg 25%
    08:00 +45°C° 0 mm 6 mps 739 mmHg 23%
    09:00 +47°C° 0 mm 6 mps 739 mmHg 21%
    10:00 +48°C° 0 mm 6 mps 739 mmHg 19%
    11:00 +50°C° 0 mm 5 mps 739 mmHg 16%
    12:00 +50°C° 0 mm 5 mps 738 mmHg 15%
    13:00 +52°C° 0 mm 5 mps 738 mmHg 14%
    14:00 +53°C° 0 mm 5 mps 737 mmHg 12%
    15:00 +52°C° 0 mm 6 mps 737 mmHg 13%
    16:00 +51°C° 0 mm 6 mps 736 mmHg 13%
    17:00 +51°C° 0 mm 7 mps 736 mmHg 14%
    18:00 +48°C° 0.1 mm 6 mps 736 mmHg 15%
    19:00 +47°C° 0.1 mm 6 mps 736 mmHg 17%
    20:00 +46°C° 0.1 mm 5 mps 737 mmHg 19%
    21:00 +44°C° 0 mm 4 mps 737 mmHg 20%
    22:00 +43°C° 0 mm 4 mps 737 mmHg 21%
    23:00 +43°C° 0 mm 3 mps 737 mmHg 23%

    27 June, Thursday

    Time Temperature Precipitation Wind Pressure Humidity
    00:00 +42°C° 0 mm 3 mps 736 mmHg 23%
    01:00 +42°C° 0 mm 3 mps 736 mmHg 24%
    02:00 +41°C° 0 mm 4 mps 736 mmHg 25%
    03:00 +41°C° 0 mm 4 mps 736 mmHg 27%
    04:00 +41°C° 0 mm 5 mps 736 mmHg 28%
    05:00 +40°C° 0 mm 6 mps 736 mmHg 30%
    06:00 +41°C° 0 mm 6 mps 736 mmHg 29%
    07:00 +41°C° 0 mm 6 mps 737 mmHg 29%
    08:00 +41°C° 0 mm 7 mps 737 mmHg 29%
    09:00 +44°C° 0 mm 7 mps 737 mmHg 27%
    10:00 +45°C° 0 mm 7 mps 737 mmHg 25%
    11:00 +47°C° 0 mm 7 mps 737 mmHg 22%
    12:00 +48°C° 0 mm 6 mps 736 mmHg 20%
    13:00 +49°C° 0 mm 5 mps 736 mmHg 18%
    14:00 +50°C° 0 mm 5 mps 736 mmHg 15%
    15:00 +48°C° 0.3 mm 5 mps 735 mmHg 18%
    16:00 +46°C° 0.3 mm 6 mps 735 mmHg 22%
    17:00 +44°C° 0.3 mm 7 mps 735 mmHg 25%
    18:00 +42°C° 0.4 mm 6 mps 735 mmHg 28%
    19:00 +41°C° 0.4 mm 4 mps 735 mmHg 31%
    20:00 +39°C° 0.4 mm 3 mps 736 mmHg 34%
    21:00 +39°C° 0 mm 3 mps 736 mmHg 33%
    22:00 +39°C° 0 mm 3 mps 736 mmHg 33%
    23:00 +39°C° 0 mm 3 mps 736 mmHg 33%

    28 June, Friday

    Time Temperature Precipitation Wind Pressure Humidity
    00:00 +38°C° 0 mm 3 mps 735 mmHg 34%
    01:00 +38°C° 0 mm 4 mps 735 mmHg 34%
    02:00 +38°C° 0 mm 4 mps 735 mmHg 35%
    03:00 +37°C° 0 mm 4 mps 735 mmHg 37%
    04:00 +37°C° 0 mm 5 mps 735 mmHg 40%
    05:00 +37°C° 0 mm 5 mps 735 mmHg 42%
    06:00 +37°C° 0 mm 5 mps 735 mmHg 43%
    07:00 +38°C° 0 mm 6 mps 736 mmHg 44%
    08:00 +39°C° 0 mm 6 mps 736 mmHg 44%
    09:00 +40°C° 0 mm 6 mps 736 mmHg 40%
    10:00 +42°C° 0 mm 6 mps 736 mmHg 35%
    11:00 +45°C° 0 mm 5 mps 736 mmHg 31%
    12:00 +46°C° 0 mm 5 mps 736 mmHg 28%
    13:00 +47°C° 0 mm 4 mps 735 mmHg 24%
    14:00 +48°C° 0 mm 4 mps 735 mmHg 21%
    15:00 +49°C° 0 mm 4 mps 734 mmHg 20%
    16:00 +49°C° 0 mm 4 mps 734 mmHg 18%
    17:00 +50°C° 0 mm 4 mps 733 mmHg 17%
    18:00 +49°C° 0 mm 4 mps 734 mmHg 18%
    19:00 +48°C° 0 mm 4 mps 734 mmHg 19%
    20:00 +47°C° 0 mm 4 mps 734 mmHg 20%
    21:00 +45°C° 0 mm 4 mps 734 mmHg 21%
    22:00 +44°C° 0 mm 4 mps 735 mmHg 22%
    23:00 +44°C° 0 mm 4 mps 735 mmHg 23%

    29 June, Saturday

    Time Temperature Precipitation Wind Pressure Humidity
    00:00 +43°C° 0 mm 5 mps 735 mmHg 26%
    01:00 +42°C° 0 mm 5 mps 735 mmHg 29%
    02:00 +42°C° 0 mm 6 mps 735 mmHg 31%
    03:00 +41°C° 0 mm 6 mps 735 mmHg 37%
    04:00 +39°C° 0 mm 6 mps 735 mmHg 42%
    05:00 +38°C° 0 mm 7 mps 735 mmHg 47%
    06:00 +39°C° 0 mm 7 mps 735 mmHg 46%
    07:00 +39°C° 0 mm 7 mps 735 mmHg 46%
    08:00 +39°C° 0 mm 7 mps 736 mmHg 45%
    09:00 +41°C° 0 mm 7 mps 736 mmHg 39%
    10:00 +44°C° 0 mm 6 mps 736 mmHg 33%
    11:00 +47°C° 0 mm 6 mps 736 mmHg 28%
    12:00 +48°C° 0 mm 6 mps 735 mmHg 24%
    13:00 +51°C° 0 mm 6 mps 735 mmHg 19%
    14:00 +52°C° 0 mm 6 mps 734 mmHg 15%
    15:00 +52°C° 0 mm 5 mps 734 mmHg 14%
    16:00 +52°C° 0 mm 5 mps 733 mmHg 13%
    17:00 +52°C° 0 mm 4 mps 733 mmHg 12%
    18:00 +51°C° 0 mm 4 mps 733 mmHg 14%
    19:00 +49°C° 0 mm 4 mps 733 mmHg 15%
    20:00 +48°C° 0 mm 4 mps 733 mmHg 16%
    21:00 +48°C° 0 mm 5 mps 733 mmHg 17%
    22:00 +47°C° 0 mm 5 mps 734 mmHg 19%
    23:00 +46°C° 0 mm 5 mps 734 mmHg 20%
    Show more